Meacham, OR

7:17 PM PST on December 03, 2016 (GMT -0800)
Meacham

Weather History for KMEH - November, 2012

Change the Weather History Date:

Thursday, November 15, 2012

  Actual Average Record
Temperature  
Mean Temperature 34 °F -  
Max Temperature 39 °F 42 °F 54 °F (1999)
Min Temperature 30 °F 25 °F -15 °F (2014)
Degree Days  
Heating Degree Days 30    
Moisture  
Dew Point 31 °F    
Average Humidity 86    
Maximum Humidity 100    
Minimum Humidity 75    
Precipitation  
Precipitation 0.00 in - - ()
Sea Level Pressure  
Sea Level Pressure 30.15 in    
Wind  
Wind Speed 1 mph (North)    
Max Wind Speed 5 mph    
Max Gust Speed -    
Visibility 9 miles    
Events      
Averages and records for this station are not official NWS values.
T = Trace of Precipitation, MM = Missing Value Source: NWS Daily Summary

Daily Weather History Graph

Daily Weather History Graph

Search for Another Location

Airport or City:

Trip Planner

Search our weather history database for the weather conditions in past years. The results will help you decide how hot, cold, wet, or windy it might be!

Date:

Astronomy

Nov. 15, 2012 Rise Set
Actual Time 6:53 AM PST 4:22 PM PST
Civil Twilight 6:21 AM PST 4:54 PM PST
Nautical Twilight 5:45 AM PST 5:30 PM PST
Astronomical Twilight 5:10 AM PST 6:05 PM PST
Moon 8:57 AM PST (11/15) 6:16 PM PST (11/15)
Length of Visible Light 10h 33m
Length of Day
9h 29m
Waxing Crescent, 5% of the Moon is Illuminated
Nov 15
Waxing Crescent
Nov 20
First Quarter
Nov 28
Full
Dec 6
Last Quarter
Dec 13
New

Hourly Weather History & Observations

Time (PST) Temp. Windchill Dew Point Humidity Pressure Visibility Wind Dir Wind Speed Gust Speed Precip Events Conditions
12:27 AM 32.0 °F - 30.2 °F 93% 30.25 in 7.0 mi Calm Calm - N/A   Scattered Clouds
12:56 AM 30.9 °F - 30.0 °F 96% 30.30 in 5.0 mi Calm Calm - N/A   Partly Cloudy
1:56 AM 30.9 °F - 30.0 °F 96% 30.28 in 5.0 mi Calm Calm - N/A   Scattered Clouds
2:35 AM 30.2 °F - 30.2 °F 100% 30.21 in 7.0 mi Calm Calm - N/A   Mostly Cloudy
2:56 AM 30.9 °F - 30.0 °F 96% 30.26 in 6.0 mi Calm Calm - N/A   Mostly Cloudy
3:18 AM 30.2 °F - 28.4 °F 93% 30.19 in 7.0 mi Calm Calm - N/A   Scattered Clouds
3:33 AM 30.2 °F - 30.2 °F 100% 30.19 in 7.0 mi Calm Calm - N/A   Mostly Cloudy
3:43 AM 30.2 °F - 30.2 °F 100% 30.19 in 8.0 mi Calm Calm - N/A   Scattered Clouds
3:56 AM 30.9 °F - 30.0 °F 96% 30.25 in 8.0 mi Calm Calm - N/A   Partly Cloudy
4:49 AM 32.0 °F - 30.2 °F 93% 30.19 in 9.0 mi Calm Calm - N/A   Mostly Cloudy
4:56 AM 30.9 °F - 30.0 °F 96% 30.25 in 9.0 mi Calm Calm - N/A   Mostly Cloudy
5:56 AM 32.0 °F - 30.0 °F 92% 30.25 in 10.0 mi Calm Calm - N/A   Overcast
6:56 AM 33.1 °F - 30.0 °F 89% 30.24 in 10.0 mi Calm Calm - N/A   Overcast
7:56 AM 33.1 °F 30.0 °F 30.0 °F 89% 30.23 in 10.0 mi Variable 3.5 mph - N/A   Mostly Cloudy
8:04 AM 33.8 °F 30.8 °F 30.2 °F 87% 30.15 in 10.0 mi Variable 3.5 mph - N/A   Scattered Clouds
8:56 AM 35.1 °F - 30.0 °F 82% 30.22 in 10.0 mi Calm Calm - N/A   Clear
9:56 AM 37.0 °F - 30.9 °F 79% 30.20 in 10.0 mi Calm Calm - N/A   Partly Cloudy
10:56 AM 39.0 °F - 32.0 °F 76% 30.17 in 10.0 mi Calm Calm - N/A   Scattered Clouds
11:03 AM 39.2 °F 35.9 °F 32.0 °F 75% 30.10 in 10.0 mi Variable 4.6 mph - N/A   Mostly Cloudy
11:45 AM 39.2 °F 37.0 °F 32.0 °F 75% 30.08 in 10.0 mi Variable 3.5 mph - N/A   Scattered Clouds
11:56 AM 37.9 °F 34.4 °F 32.0 °F 79% 30.14 in 10.0 mi Variable 4.6 mph - N/A   Scattered Clouds
12:56 PM 39.0 °F 35.7 °F 32.0 °F 76% 30.12 in 10.0 mi Variable 4.6 mph - N/A   Scattered Clouds
1:56 PM 39.9 °F 36.7 °F 33.1 °F 77% 30.09 in 10.0 mi Variable 4.6 mph - N/A   Scattered Clouds
2:56 PM 39.0 °F - 32.0 °F 76% 30.08 in 10.0 mi Calm Calm - N/A   Clear
3:56 PM 37.9 °F 34.4 °F 32.0 °F 79% 30.07 in 10.0 mi Variable 4.6 mph - N/A   Clear
4:56 PM 37.0 °F - 32.0 °F 82% 30.06 in 10.0 mi Calm Calm - N/A   Clear
5:56 PM 37.0 °F - 32.0 °F 82% 30.06 in 10.0 mi Calm Calm - N/A   Clear
6:56 PM 37.0 °F - 32.0 °F 82% 30.05 in 10.0 mi Calm Calm - N/A   Clear
7:56 PM 36.0 °F - 30.9 °F 82% 30.04 in 10.0 mi Calm Calm - N/A   Clear
8:56 PM 37.0 °F - 30.9 °F 79% 30.03 in 10.0 mi Calm Calm - N/A   Clear
9:56 PM 36.0 °F - 30.9 °F 82% 30.01 in 10.0 mi Calm Calm - N/A   Clear
10:56 PM 36.0 °F - 32.0 °F 86% 30.00 in 10.0 mi Calm Calm - N/A   Overcast
11:56 PM 37.9 °F - 33.1 °F 83% 29.99 in 10.0 mi Calm Calm - N/A   Mostly Cloudy